Vorticity
10 6 9 10 7 7 4 4 0 3 4 6 4 3 2 1 1 3 4 5 6 7 6 6 7 7 6 6 5 4 3 2 2 7 5 6 11 3 6 11 12 13 15
35 5 6 8 6 4 3 3 2 3 3 2 7 7 8 8 7 6 6 5 5 6 6 6 5 5 5 6 6 6 5 7 8 7 7 5 9 12 8 14 9 14 11
12 11 7 5 6 8 8 9 8 10 8 5 4 5 4 6 6 5 5 5 5 5 5 6 7 8 9 8 9 7 7 8 8 8 9 8 6 11 7 7 8 7 9
-16 28 6 9 6 7 5 9 4 3 4 5 5 5 4 3 4 6 6 6 6 7 7 7 7 6 6 7 9 10 10 9 9 10 11 11 9 3 7 8 8 12 8
-7 -5 10 8 9 9 7 2 1 2 -1 1 1 2 5 6 7 7 8 7 7 6 6 5 6 8 9 10 11 11 11 11 10 10 9 8 7 7 9 5 4 10 12
36 5 -6 10 6 6 3 1 0 2 -0 -0 2 4 7 7 7 7 7 6 6 6 7 8 8 9 10 10 10 10 9 8 7 6 7 7 8 5 13 11 5 6 7
7 8 34 1 4 4 5 3 0 2 1 1 5 8 8 5 4 5 6 6 6 7 8 9 10 10 9 9 8 8 7 8 8 9 8 8 9 10 4 9 11 12 11
15 22 17 11 9 3 4 3 5 9 10 11 12 7 5 6 6 6 9 10 11 10 10 9 9 9 9 9 10 10 10 10 9 10 10 11 11 13 11 20 10 10 11
13 2 23 13 12 4 4 10 9 6 7 8 4 2 3 5 6 7 9 11 12 11 10 9 9 9 9 9 9 8 9 10 10 10 10 10 11 11 12 13 12 13 10
19 8 31 10 -8 7 2 3 -2 -2 -2 -1 0 4 5 8 7 8 8 7 9 10 10 10 9 9 8 8 8 9 10 11 12 11 10 10 10 12 11 13 11 8 8
17 10 32 3 31 6 -15 5 5 1 0 4 5 6 8 10 11 10 10 10 9 8 8 8 8 9 10 10 11 11 12 12 12 12 12 12 12 12 13 10 9 10 12
24 21 11 5 24 25 -2 4 11 10 8 6 8 9 13 14 13 11 10 9 9 10 10 11 11 11 11 11 12 12 13 12 11 11 10 12 15 15 14 10 12 12 10
11 23 26 17 22 9 22 23 11 7 3 7 11 13 11 9 9 10 10 10 10 11 11 11 11 12 12 12 12 12 10 10 11 11 12 15 15 11 12 13 18 20 21
9 8 17 18 18 17 18 15 13 15 12 12 11 8 8 8 9 10 11 11 11 10 10 12 13 13 13 12 11 11 11 14 15 16 16 14 14 14 17 9 7 6 6
21 19 3 9 13 13 12 11 12 13 10 8 8 9 9 9 9 10 10 11 10 12 11 12 14 14 13 13 12 12 13 14 16 16 14 14 18 11 6 5 5 6 6
20 23 9 6 7 10 9 8 7 8 8 7 7 8 8 9 9 8 8 10 11 12 13 12 12 12 12 12 13 13 15 16 14 13 18 12 7 5 6 5 6 7 8
16 7 0 7 8 7 7 9 9 7 7 8 9 8 8 8 9 11 10 11 14 14 14 11 12 12 13 13 13 14 19 19 18 14 7 6 6 6 7 8 8 9 9
10 15 -4 -2 15 8 7 7 10 8 10 11 9 9 9 11 11 11 13 13 13 16 16 13 12 13 12 12 18 20 16 11 6 6 5 6 7 8 8 8 10 9 9
7 14 19 14 18 5 6 9 5 5 8 10 9 9 11 12 11 11 10 11 13 12 12 12 12 13 13 18 18 12 7 6 6 6 6 7 7 7 8 8 7 7 8
13 18 20 14 16 5 6 8 2 3 7 8 9 10 12 13 11 11 11 14 17 13 13 16 17 15 18 17 10 6 6 6 6 6 6 7 7 7 7 6 6 7 7
11 10 11 14 7 8 7 7 5 3 8 11 8 11 12 12 10 11 13 16 20 17 17 17 17 17 18 9 6 6 6 6 6 6 7 7 7 7 6 6 6 6 6
19 6 11 11 10 5 8 5 3 4 9 10 8 6 15 15 20 13 14 16 16 14 15 17 19 18 7 6 6 5 5 6 6 6 6 7 7 7 6 7 6 6 6
23 21 12 8 6 6 5 5 6 10 11 11 10 8 8 12 -5 4 15 17 19 20 19 17 11 7 6 7 6 5 6 6 6 6 6 7 7 7 7 7 7 6 5
8 11 12 11 8 6 4 2 13 16 8 8 22 7 4 7 15 13 8 14 13 10 7 9 9 8 8 7 7 7 6 6 6 6 7 7 7 7 7 7 7 7 6
6 9 6 5 4 8 16 16 18 14 10 19 15 8 6 10 11 11 14 12 7 7 10 11 9 8 8 7 7 7 7 7 7 7 7 7 7 7 8 8 7 7 7
14 12 6 7 26 21 14 11 13 15 18 -1 9 15 8 6 8 13 10 11 11 8 7 7 9 8 8 8 8 8 8 7 7 8 7 7 8 8 8 8 7 8 7
Height
3128 3131 3134 3138 3141 3144 3147 3150 3153 3156 3159 3161 3164 3166 3168 3169 3170 3171 3172 3172 3173 3173 3173 3174 3173 3173 3172 3171 3170 3169 3168 3167 3165 3162 3161 3160 3158 3155 3155 3154 3152 3149 3146
3123 3126 3130 3133 3137 3140 3144 3146 3149 3152 3155 3157 3159 3162 3163 3165 3166 3167 3167 3168 3168 3168 3168 3168 3168 3167 3166 3166 3164 3163 3161 3160 3159 3156 3154 3152 3153 3151 3148 3148 3145 3143 3141
3120 3120 3124 3129 3132 3135 3139 3142 3144 3147 3151 3153 3155 3157 3159 3160 3161 3161 3162 3163 3163 3163 3163 3163 3162 3161 3159 3159 3158 3156 3154 3152 3152 3151 3150 3146 3144 3142 3141 3141 3141 3138 3136
3114 3115 3118 3123 3128 3131 3134 3137 3141 3143 3146 3149 3151 3152 3154 3155 3155 3156 3156 3157 3157 3157 3157 3156 3156 3154 3153 3152 3151 3149 3147 3145 3144 3143 3143 3141 3138 3136 3134 3134 3135 3133 3131
3107 3109 3114 3118 3121 3126 3129 3132 3135 3138 3141 3143 3145 3147 3147 3149 3149 3149 3150 3150 3150 3150 3150 3149 3148 3147 3145 3144 3143 3142 3140 3139 3137 3136 3135 3135 3133 3131 3129 3125 3125 3123 3123
3098 3105 3109 3112 3115 3120 3123 3126 3129 3132 3135 3137 3139 3140 3141 3142 3142 3143 3143 3143 3143 3143 3142 3141 3140 3139 3138 3137 3136 3134 3133 3132 3130 3129 3128 3126 3125 3122 3122 3119 3117 3116 3115
3091 3097 3097 3106 3110 3114 3117 3120 3123 3126 3129 3131 3132 3134 3135 3136 3136 3136 3136 3135 3135 3134 3134 3133 3132 3132 3131 3129 3128 3127 3126 3124 3123 3122 3120 3119 3117 3115 3115 3113 3111 3110 3108
3085 3089 3093 3099 3104 3107 3111 3114 3117 3120 3122 3124 3126 3128 3129 3130 3130 3130 3129 3128 3127 3126 3126 3125 3124 3124 3123 3121 3120 3119 3118 3117 3115 3114 3112 3112 3110 3109 3107 3106 3105 3103 3102
3081 3083 3088 3091 3096 3101 3105 3108 3111 3114 3117 3118 3121 3122 3123 3123 3122 3122 3121 3120 3119 3118 3118 3117 3116 3115 3114 3113 3112 3111 3110 3109 3108 3106 3105 3104 3102 3101 3100 3098 3098 3096 3096
3078 3080 3082 3085 3090 3094 3098 3102 3105 3108 3110 3112 3114 3115 3115 3115 3115 3114 3114 3112 3112 3110 3109 3108 3108 3107 3106 3105 3103 3102 3101 3100 3100 3098 3097 3096 3095 3094 3093 3093 3092 3091 3090
3074 3076 3079 3081 3082 3088 3090 3095 3098 3101 3103 3105 3107 3107 3108 3107 3107 3107 3106 3105 3104 3103 3102 3101 3100 3099 3098 3096 3095 3094 3093 3092 3091 3091 3090 3089 3087 3087 3086 3086 3086 3085 3085
3070 3071 3074 3076 3078 3082 3086 3089 3093 3095 3097 3099 3099 3100 3100 3100 3099 3099 3098 3097 3096 3095 3094 3093 3092 3091 3089 3088 3087 3086 3085 3085 3084 3083 3083 3082 3081 3081 3081 3080 3081 3079 3079
3069 3068 3070 3072 3073 3076 3078 3081 3084 3087 3089 3091 3091 3092 3093 3093 3093 3092 3090 3089 3088 3087 3086 3084 3083 3082 3081 3080 3080 3079 3079 3078 3077 3077 3077 3077 3077 3077 3076 3076 3076 3074 3075
3067 3067 3067 3067 3068 3071 3072 3075 3078 3080 3083 3085 3085 3086 3086 3086 3085 3084 3083 3082 3080 3079 3078 3076 3076 3074 3073 3074 3073 3072 3072 3072 3072 3071 3072 3072 3072 3073 3072 3073 3073 3072 3071
3062 3063 3064 3064 3065 3067 3069 3072 3074 3075 3076 3078 3078 3079 3080 3079 3078 3077 3076 3074 3072 3071 3071 3069 3068 3068 3068 3068 3067 3066 3066 3067 3066 3067 3068 3068 3069 3070 3071 3070 3070 3069 3069
3058 3059 3058 3060 3062 3064 3066 3067 3068 3070 3071 3071 3072 3073 3072 3072 3071 3069 3068 3067 3066 3064 3063 3063 3062 3062 3061 3061 3062 3061 3061 3062 3063 3064 3065 3066 3067 3067 3068 3067 3066 3066 3065
3051 3052 3054 3055 3057 3059 3061 3062 3062 3064 3065 3065 3065 3065 3065 3064 3063 3062 3060 3058 3058 3057 3056 3056 3057 3056 3056 3056 3056 3056 3057 3058 3060 3061 3062 3063 3064 3064 3064 3064 3062 3062 3061
3043 3045 3047 3049 3051 3052 3055 3057 3058 3060 3060 3060 3060 3059 3059 3059 3057 3056 3054 3052 3051 3050 3049 3050 3051 3051 3051 3052 3051 3052 3054 3055 3057 3058 3058 3060 3060 3061 3060 3060 3060 3059 3057
3037 3039 3040 3042 3044 3047 3049 3052 3054 3055 3055 3055 3055 3055 3054 3052 3051 3050 3048 3046 3045 3044 3043 3043 3044 3045 3046 3048 3049 3050 3052 3053 3054 3055 3056 3056 3057 3057 3057 3057 3055 3054 3053
3030 3032 3033 3036 3039 3042 3045 3047 3048 3049 3050 3049 3049 3049 3048 3047 3045 3044 3042 3041 3039 3039 3038 3037 3038 3040 3042 3045 3046 3048 3049 3050 3051 3053 3053 3053 3053 3053 3052 3051 3051 3050 3049
3026 3028 3030 3033 3035 3038 3041 3042 3043 3044 3044 3044 3044 3043 3042 3041 3040 3039 3037 3035 3033 3033 3032 3033 3034 3036 3039 3042 3043 3045 3046 3047 3048 3048 3049 3050 3049 3049 3048 3047 3046 3045 3044
3022 3024 3027 3029 3032 3034 3036 3037 3038 3038 3039 3039 3038 3038 3036 3035 3033 3032 3031 3030 3029 3028 3028 3029 3031 3033 3036 3038 3040 3041 3042 3043 3044 3045 3045 3045 3045 3045 3044 3043 3041 3040 3038
3019 3020 3023 3026 3028 3029 3030 3031 3031 3032 3032 3032 3032 3031 3031 3030 3029 3028 3027 3025 3024 3024 3025 3027 3029 3032 3033 3035 3036 3037 3038 3038 3039 3040 3039 3040 3040 3040 3039 3037 3036 3034 3033
3017 3019 3020 3022 3023 3024 3025 3025 3026 3026 3026 3025 3025 3026 3025 3025 3024 3024 3023 3022 3022 3023 3024 3026 3028 3029 3030 3032 3032 3032 3033 3033 3033 3033 3034 3034 3034 3034 3033 3031 3030 3028 3027
3014 3015 3016 3017 3017 3018 3018 3019 3019 3019 3019 3018 3019 3019 3020 3020 3019 3019 3019 3019 3019 3020 3021 3022 3024 3025 3026 3027 3027 3027 3027 3027 3028 3028 3028 3028 3028 3027 3026 3025 3024 3022 3021
3010 3011 3011 3012 3011 3012 3012 3012 3012 3012 3012 3013 3013 3014 3014 3014 3014 3014 3014 3015 3015 3016 3017 3018 3019 3020 3021 3021 3021 3021 3021 3021 3021 3022 3021 3021 3021 3020 3019 3018 3017 3015 3014